Probability
0 0 0 0 0 0 0 0 0 0 0 0 0 0 0 0 0 0 0 0 0 0 0 0 0 0 0 0 0 0 0 0 0 0 0 0 0 0 0 0 0 0 0 0
0 0 0 0 0 0 0 0 0 0 0 0 0 0 0 0 0 0 0 0 0 0 0 0 0 0 0 0 0 0 0 0 0 0 0 0 0 0 0 0 0 0 0 0
0 0 0 0 0 0 0 0 0 0 0 0 0 0 0 0 0 0 0 0 0 0 0 0 0 0 0 0 0 0 0 0 0 0 0 0 0 0 0 0 0 0 0 0
0 0 0 0 0 0 0 0 0 0 0 0 0 0 0 0 0 0 0 0 0 0 0 0 0 0 0 0 0 0 0 0 0 0 0 0 0 0 0 0 0 0 0 0
0 0 0 0 0 0 0 0 0 0 0 0 0 0 0 0 0 0 0 0 0 0 0 0 0 0 0 0 0 0 0 0 0 0 0 0 0 0 0 0 0 0 0 0
0 0 0 0 0 0 0 0 0 0 0 0 0 0 0 0 0 0 0 0 0 0 0 0 0 0 0 0 0 0 0 0 0 0 0 0 0 0 0 0 0 0 0 0
0 0 0 0 0 0 0 0 0 0 0 0 0 0 0 0 0 0 0 0 0 0 0 0 0 0 0 0 0 0 0 0 0 0 0 0 0 0 0 0 0 0 0 0
0 0 0 0 0 0 0 0 0 0 0 0 0 0 0 0 0 0 0 0 0 0 0 0 0 0 0 0 0 0 0 0 0 0 0 0 0 0 0 0 0 0 0 0
0 0 0 0 0 0 0 0 0 0 0 0 0 0 0 0 0 0 0 0 0 0 0 0 0 0 0 0 0 0 0 0 0 0 0 0 0 0 0 0 0 0 0 0
0 0 0 0 0 0 0 0 0 0 0 0 0 0 0 0 0 0 0 0 0 0 0 0 0 0 0 0 0 0 0 0 0 0 0 0 0 0 0 0 0 0 0 0
0 0 0 0 0 0 0 0 0 0 0 0 0 0 0 0 0 0 0 0 0 0 0 0 0 0 0 0 0 0 0 0 0 0 0 0 0 0 0 0 0 0 0 0
0 0 0 0 0 0 0 0 0 0 0 0 0 0 0 0 0 0 0 0 0 0 0 0 0 0 0 0 0 0 0 0 0 0 0 0 0 0 0 0 0 0 0 0
0 0 0 0 0 0 0 0 0 0 0 0 0 0 0 0 0 0 0 0 0 0 0 0 0 0 0 0 0 0 0 0 0 0 0 0 0 0 0 0 0 0 0 0
0 0 0 0 0 0 0 0 0 0 0 0 0 0 0 0 0 0 0 0 0 0 0 0 0 0 0 0 0 0 0 0 0 0 0 0 0 0 0 0 0 0 0 0
0 0 0 0 0 0 0 0 0 0 0 0 0 0 0 0 0 0 0 0 0 0 0 0 0 0 0 0 0 0 0 0 0 0 0 0 0 0 0 0 0 0 0 0
0 0 0 0 0 0 0 0 0 0 0 0 0 0 0 0 0 0 0 0 0 0 0 0 0 0 0 0 0 0 0 0 0 0 0 0 0 0 0 0 0 0 0 0
0 0 0 0 0 0 0 0 0 0 0 0 0 0 0 0 0 0 0 0 0 0 0 0 0 0 0 0 0 0 0 0 0 0 0 0 0 0 0 0 0 0 0 0
0 0 0 0 0 0 0 0 0 0 0 0 0 0 0 0 0 0 0 0 0 0 0 0 0 0 0 0 0 0 0 0 0 0 0 0 0 0 0 0 0 0 0 0
0 0 0 0 0 0 0 0 0 0 0 0 0 0 0 0 0 0 0 0 0 0 0 0 0 0 0 0 0 0 0 0 0 0 0 0 0 0 0 0 0 0 0 0
0 0 0 0 0 0 0 0 0 0 0 0 0 0 0 0 0 0 0 0 0 0 0 0 0 0 0 0 0 0 0 0 0 0 0 0 0 0 0 0 0 0 0 0
0 0 0 0 0 0 0 0 0 0 0 0 0 0 0 0 0 0 0 0 0 0 0 0 0 0 0 0 0 0 0 0 0 0 0 0 0 0 0 0 0 0 0 0
0 0 0 0 0 0 0 0 0 0 0 0 0 0 0 0 0 0 0 0 0 0 0 0 0 0 0 0 0 0 0 0 0 0 0 0 0 0 0 0 0 0 0 0
0 0 0 0 0 0 0 0 0 0 0 0 0 0 0 0 0 0 0 0 0 0 0 0 0 0 0 0 0 0 0 0 0 0 0 0 0 0 0 0 0 0 0 0
0 0 0 0 0 0 0 0 0 0 0 0 0 0 0 0 0 0 0 0 0 0 0 0 0 0 0 0 0 0 0 0 0 0 0 0 0 0 0 0 0 0 0 0
0 0 0 0 0 0 0 0 0 0 0 0 0 0 0 0 0 0 0 0 0 0 0 0 0 0 0 0 0 0 0 0 0 0 0 0 0 0 0 0 0 0 0 0
0 0 0 0 0 0 0 0 0 0 0 0 0 0 0 0 0 0 0 0 0 0 0 0 0 0 0 0 0 0 0 0 0 0 0 0 0 0 0 0 0 0 0 0
0 0 0 0 0 0 0 0 0 0 0 0 0 0 0 0 0 0 0 0 0 0 0 0 0 0 0 0 0 0 0 0 0 0 0 0 0 0 0 0 0 0 0 0
Height
5553 5552 5553 5554 5555 5555 5556 5557 5559 5562 5564 5566 5568 5569 5571 5573 5575 5577 5580 5582 5585 5588 5591 5594 5597 5601 5604 5607 5612 5616 5620 5624 5628 5631 5635 5638 5641 5644 5648 5651 5654 5656 5659 5661
5550 5549 5549 5549 5550 5550 5551 5552 5554 5556 5558 5560 5560 5562 5564 5566 5568 5570 5573 5575 5578 5581 5583 5586 5589 5593 5596 5599 5603 5607 5611 5615 5619 5622 5626 5629 5632 5635 5639 5642 5645 5647 5650 5652
5546 5545 5544 5545 5545 5545 5546 5547 5548 5550 5553 5553 5554 5556 5557 5559 5561 5563 5566 5568 5571 5573 5576 5579 5582 5585 5588 5591 5595 5599 5603 5606 5610 5613 5616 5619 5623 5626 5629 5633 5636 5638 5640 5642
5540 5541 5540 5543 5540 5540 5541 5542 5543 5544 5545 5546 5548 5549 5551 5552 5554 5556 5559 5561 5563 5566 5569 5571 5574 5577 5580 5583 5586 5590 5594 5597 5601 5604 5607 5610 5613 5617 5620 5623 5626 5629 5631 5633
5535 5534 5535 5537 5535 5535 5536 5537 5538 5538 5539 5541 5541 5543 5545 5546 5547 5549 5552 5554 5556 5558 5561 5563 5566 5569 5572 5575 5578 5582 5585 5588 5592 5595 5598 5601 5604 5608 5611 5614 5617 5619 5622 5624
5530 5529 5530 5532 5530 5529 5531 5532 5533 5533 5534 5535 5536 5537 5539 5539 5540 5542 5544 5547 5549 5551 5553 5556 5559 5561 5564 5567 5570 5574 5577 5580 5583 5586 5589 5593 5596 5599 5601 5604 5607 5610 5612 5615
5526 5525 5525 5526 5525 5525 5527 5528 5527 5527 5528 5529 5529 5531 5532 5533 5534 5535 5537 5539 5541 5543 5546 5548 5551 5554 5557 5559 5562 5565 5568 5571 5575 5578 5581 5584 5587 5590 5592 5595 5598 5600 5603 5606
5522 5521 5523 5521 5520 5520 5521 5521 5521 5521 5522 5523 5523 5524 5525 5526 5527 5528 5530 5531 5533 5535 5538 5541 5543 5546 5549 5552 5555 5557 5560 5563 5566 5569 5572 5575 5578 5581 5583 5586 5589 5591 5594 5596
5519 5520 5517 5515 5515 5515 5515 5515 5515 5515 5516 5516 5517 5518 5519 5519 5520 5521 5522 5524 5526 5528 5531 5533 5536 5538 5541 5544 5547 5549 5552 5555 5557 5560 5563 5566 5569 5572 5575 5577 5580 5582 5585 5587
5513 5513 5512 5511 5510 5509 5509 5509 5509 5509 5510 5510 5510 5511 5512 5513 5514 5514 5515 5517 5519 5521 5523 5525 5528 5530 5533 5536 5539 5541 5544 5546 5549 5551 5554 5557 5560 5563 5566 5568 5571 5573 5575 5578
5508 5507 5506 5506 5505 5504 5503 5503 5503 5503 5503 5504 5504 5505 5506 5506 5507 5508 5509 5510 5512 5513 5516 5518 5520 5522 5525 5528 5531 5533 5535 5537 5540 5542 5545 5548 5551 5554 5557 5560 5562 5564 5566 5569
5503 5502 5501 5500 5499 5498 5497 5497 5497 5497 5497 5498 5498 5498 5499 5499 5500 5501 5502 5504 5505 5506 5508 5510 5512 5514 5517 5520 5523 5525 5527 5530 5532 5534 5537 5540 5543 5546 5548 5551 5553 5555 5558 5560
5497 5496 5495 5494 5493 5492 5492 5491 5491 5491 5491 5491 5492 5492 5492 5492 5493 5494 5495 5497 5498 5499 5501 5502 5504 5507 5509 5512 5515 5517 5519 5522 5524 5526 5529 5532 5534 5537 5540 5543 5545 5547 5549 5551
5491 5490 5490 5489 5488 5487 5487 5486 5486 5486 5486 5485 5485 5485 5485 5486 5486 5487 5488 5490 5491 5492 5493 5495 5497 5499 5501 5504 5507 5509 5511 5514 5516 5518 5521 5523 5526 5529 5532 5535 5537 5539 5541 5543
5486 5486 5485 5484 5484 5483 5482 5481 5481 5480 5480 5479 5479 5478 5478 5479 5480 5480 5481 5483 5484 5485 5486 5488 5489 5491 5494 5496 5499 5501 5503 5506 5508 5511 5513 5516 5518 5521 5524 5527 5529 5531 5533 5535
5482 5481 5480 5480 5479 5478 5477 5476 5475 5475 5474 5473 5473 5472 5472 5472 5473 5473 5474 5476 5477 5478 5479 5481 5482 5484 5486 5489 5491 5494 5496 5498 5501 5503 5506 5508 5511 5514 5517 5520 5522 5524 5526 5528
5477 5477 5476 5475 5474 5473 5472 5471 5470 5469 5468 5467 5467 5466 5466 5466 5466 5467 5468 5469 5470 5471 5473 5474 5476 5478 5480 5482 5484 5487 5489 5491 5494 5496 5499 5502 5504 5507 5510 5512 5515 5517 5519 5521
5472 5471 5470 5469 5468 5467 5466 5465 5464 5463 5462 5461 5461 5460 5460 5460 5460 5461 5461 5462 5463 5465 5466 5467 5469 5471 5473 5475 5477 5480 5482 5484 5487 5489 5492 5495 5497 5500 5503 5505 5508 5510 5512 5514
5466 5465 5465 5463 5463 5462 5461 5460 5459 5458 5457 5456 5455 5454 5454 5454 5454 5454 5455 5456 5457 5458 5459 5460 5462 5464 5466 5468 5470 5473 5475 5477 5480 5482 5485 5488 5490 5493 5495 5498 5501 5503 5505 5507
5460 5460 5459 5458 5457 5456 5456 5455 5454 5453 5451 5450 5450 5449 5449 5448 5448 5448 5449 5449 5450 5451 5452 5453 5455 5457 5459 5461 5463 5465 5468 5470 5473 5475 5477 5480 5483 5486 5488 5491 5493 5496 5498 5500
5455 5454 5453 5452 5451 5451 5450 5449 5448 5447 5446 5445 5444 5443 5443 5443 5443 5443 5443 5443 5444 5444 5445 5446 5448 5449 5451 5453 5455 5458 5460 5463 5465 5468 5470 5473 5476 5478 5481 5484 5486 5489 5491 5493
5449 5448 5447 5446 5445 5445 5444 5443 5442 5442 5441 5440 5439 5438 5437 5437 5437 5437 5437 5437 5437 5438 5439 5440 5441 5443 5444 5446 5448 5450 5453 5456 5458 5461 5463 5466 5469 5471 5474 5477 5479 5482 5484 5486
5443 5442 5441 5440 5440 5439 5438 5437 5436 5436 5435 5434 5433 5432 5432 5431 5431 5431 5431 5431 5431 5432 5433 5434 5435 5436 5437 5439 5441 5443 5446 5449 5451 5454 5456 5459 5461 5464 5467 5470 5472 5475 5477 5479
5437 5436 5435 5435 5434 5433 5432 5431 5431 5430 5429 5428 5427 5427 5426 5426 5426 5425 5425 5425 5426 5427 5427 5428 5429 5430 5431 5433 5435 5437 5439 5442 5445 5447 5449 5452 5455 5457 5460 5463 5466 5468 5470 5473
5431 5430 5430 5429 5428 5427 5427 5426 5425 5424 5423 5423 5422 5421 5421 5421 5421 5420 5420 5420 5421 5421 5422 5423 5424 5425 5426 5427 5429 5431 5433 5435 5438 5440 5443 5445 5448 5451 5454 5457 5459 5461 5464 5466
5426 5425 5424 5423 5422 5422 5421 5420 5419 5418 5418 5417 5417 5416 5416 5416 5415 5415 5415 5415 5416 5416 5417 5417 5418 5419 5421 5422 5423 5425 5427 5429 5431 5434 5436 5439 5442 5445 5448 5450 5453 5456 5458 5460
5420 5419 5418 5417 5417 5416 5415 5414 5414 5413 5412 5412 5412 5411 5411 5411 5411 5411 5411 5411 5411 5411 5412 5413 5413 5414 5416 5417 5419 5420 5422 5423 5426 5428 5431 5434 5437 5440 5442 5445 5448 5450 5453 5455
Wind_Speed
19 20 21 20 22 24 25 25 25 23 23 24 25 26 26 26 28 28 29 30 31 31 33 34 35 35 36 38 40 41 42 41 41 42 42 42 42 42 41 41 40 40 39 39
18 19 21 21 22 23 24 24 25 25 24 24 25 26 26 27 27 29 29 30 31 31 31 32 33 34 35 36 38 38 40 40 41 41 41 41 41 42 41 40 40 39 39 38
17 18 19 20 20 21 22 23 23 24 24 25 25 25 26 27 27 29 30 31 31 31 32 32 32 33 34 35 36 37 38 39 39 39 39 39 40 40 40 40 39 39 38 38
18 18 18 18 19 20 20 21 22 23 24 24 25 25 26 27 27 28 29 30 31 32 32 32 32 32 33 35 36 36 37 38 38 38 37 38 38 39 40 40 39 38 37 37
19 19 19 18 18 20 21 20 21 22 23 24 25 25 26 27 28 28 28 28 29 30 30 31 32 32 33 34 35 35 36 37 37 37 37 37 37 38 39 39 39 38 37 37
18 19 18 18 18 19 20 20 20 21 23 23 24 25 26 27 27 28 28 28 28 29 29 30 30 31 32 33 34 34 34 34 35 36 37 37 37 37 37 38 39 39 38 37
17 18 18 17 19 19 20 20 21 22 22 23 23 25 25 26 27 28 29 30 30 31 31 30 30 30 31 32 32 33 34 34 34 35 36 36 36 36 36 37 37 38 38 38
18 18 17 17 18 19 20 20 20 22 23 24 25 25 25 25 26 28 29 30 30 31 31 31 31 30 31 31 31 32 32 33 33 34 35 35 36 36 36 36 36 37 37 37
19 19 18 18 18 19 20 20 21 22 23 25 25 25 25 24 25 26 27 28 29 30 30 31 31 31 31 31 31 32 32 32 32 33 35 35 35 35 35 36 36 36 37 37
20 20 19 19 19 20 20 21 21 22 23 24 24 23 23 24 24 24 25 26 27 28 29 30 30 31 32 31 31 32 32 32 33 33 34 35 35 35 35 35 35 35 36 36
20 20 19 19 20 20 21 21 22 22 23 23 24 24 24 24 24 25 24 25 25 26 28 29 30 31 32 31 31 31 31 31 32 32 34 34 34 34 34 34 34 34 34 35
19 19 19 19 20 20 20 20 21 21 22 22 23 24 24 25 25 25 25 24 24 25 26 27 29 31 32 32 31 31 31 30 31 31 32 32 32 33 33 33 32 33 33 33
19 18 18 19 19 19 19 19 20 21 21 21 22 23 24 25 25 25 25 25 24 24 26 27 28 29 31 31 31 31 31 30 30 30 31 31 31 32 33 32 32 32 31 31
17 16 16 16 16 17 18 18 19 20 21 22 22 23 24 24 24 25 25 25 25 25 25 26 27 28 30 30 31 31 31 30 30 30 30 30 30 30 31 30 30 30 30 30
16 15 16 16 16 17 17 17 18 19 20 21 21 21 22 22 23 23 24 25 25 25 24 24 25 27 28 28 29 29 30 29 29 29 29 29 29 29 29 28 28 28 29 29
15 15 16 17 17 17 18 18 18 19 19 20 20 20 20 20 21 22 22 23 23 23 23 23 24 25 26 27 27 27 27 28 28 28 28 28 28 28 27 27 27 26 27 27
17 17 17 17 17 18 18 19 19 19 19 19 19 19 19 20 20 21 22 22 22 23 23 23 23 24 25 26 26 27 27 27 27 27 27 27 28 27 27 27 26 26 25 25
18 18 18 18 18 18 18 18 18 19 18 18 18 18 18 18 19 20 21 21 22 23 23 24 24 25 25 25 26 26 26 26 26 27 27 27 27 27 27 27 26 25 25 25
19 19 19 19 19 19 18 18 18 18 18 18 18 17 17 18 18 18 19 21 22 22 23 23 24 24 24 24 25 25 26 26 26 26 26 26 27 27 26 26 26 26 25 25
19 20 20 20 20 19 19 19 19 18 18 18 18 17 17 18 18 18 18 19 20 21 22 22 23 23 24 24 24 24 25 25 25 26 26 26 26 26 26 26 25 25 24 24
20 20 20 20 20 20 20 19 19 19 19 18 18 17 18 18 18 18 18 19 19 20 21 21 22 22 22 23 23 24 24 24 24 25 25 25 26 26 26 25 25 25 24 24
20 20 19 19 19 19 19 19 19 19 19 19 18 18 18 17 18 18 18 18 19 19 19 20 21 21 22 22 23 23 24 24 24 24 24 25 25 26 26 25 25 25 24 24
18 18 19 19 19 19 19 19 19 19 19 19 19 18 18 17 17 17 17 18 18 18 18 19 19 20 21 21 22 23 24 24 24 24 24 24 24 25 25 25 25 24 24 23
18 18 18 19 18 18 18 18 19 19 18 18 18 17 17 17 16 16 16 16 17 18 18 18 18 18 19 20 21 22 23 24 24 24 24 24 24 24 24 24 23 23 22 22
18 19 19 19 18 18 18 18 18 18 17 17 16 16 16 16 16 16 15 15 16 16 17 17 17 17 17 17 18 20 21 22 23 23 23 23 23 23 23 23 22 22 21 21
18 18 19 19 18 18 18 18 17 17 17 16 16 16 15 15 15 15 15 15 15 15 15 16 16 17 17 16 17 17 18 20 20 21 21 21 21 21 21 20 20 20 20 20
18 18 17 17 17 17 17 17 16 16 16 16 16 15 15 15 15 14 14 14 13 13 14 14 15 15 16 16 16 16 16 17 18 19 20 20 20 19 19 19 19 18 18 18
Wind_Direction
276 267 265 261 256 255 251 249 251 251 251 250 249 250 250 250 248 246 244 244 244 243 242 242 241 240 239 238 238 239 240 241 242 242 244 246 246 247 248 250 252 253 253 256
276 271 267 264 260 258 254 251 251 252 251 250 250 249 249 249 248 248 247 244 244 242 240 240 241 240 239 238 237 238 239 241 242 244 245 246 247 248 249 251 252 252 253 256
281 276 270 264 260 259 256 253 251 251 249 249 249 248 248 249 250 248 247 244 243 241 240 241 242 241 239 239 238 239 239 241 242 243 245 246 246 247 248 250 252 253 254 257
281 277 275 271 262 258 255 254 252 250 248 248 248 249 250 251 250 250 248 245 243 241 241 242 243 242 241 241 240 240 242 243 244 245 246 246 246 246 248 250 251 252 253 256
283 278 277 275 267 259 257 256 255 252 249 250 250 250 251 252 251 249 248 247 244 243 241 242 243 243 243 242 241 241 244 245 245 246 247 248 247 246 248 250 251 252 254 255
285 281 282 277 270 264 260 258 256 257 255 254 255 253 252 252 251 249 247 246 245 242 241 241 242 242 243 242 241 242 243 245 246 247 248 248 247 247 249 250 250 252 253 255
285 284 284 279 271 265 262 262 260 259 258 258 258 256 254 252 251 249 249 249 248 244 242 243 243 243 243 242 242 243 244 245 246 247 248 248 248 248 249 250 250 251 253 255
287 287 286 279 273 267 265 263 263 262 261 260 259 257 255 255 253 251 250 250 249 246 244 244 243 243 244 243 243 244 245 246 246 247 247 248 248 248 249 251 252 252 253 255
287 286 283 279 276 271 267 265 263 264 263 261 258 257 256 256 255 254 252 250 247 245 244 244 243 242 242 242 243 244 245 246 247 247 247 247 248 248 250 252 254 254 254 254
288 284 280 278 277 273 270 267 266 266 265 262 258 257 256 256 254 252 250 248 246 245 244 244 243 242 241 242 243 243 245 246 247 248 247 247 248 249 250 252 254 255 254 254
287 283 279 277 277 275 269 267 268 267 265 263 262 259 259 258 255 253 250 249 247 245 245 245 244 241 240 241 243 243 244 246 246 247 247 247 247 248 249 251 252 253 254 254
286 283 280 279 277 275 272 270 268 267 265 264 263 262 259 259 257 254 252 251 249 246 246 246 245 243 242 242 244 244 244 245 246 247 248 248 248 248 249 250 252 254 255 255
284 282 282 281 279 278 276 273 270 268 266 266 266 264 263 260 257 254 252 251 251 250 249 248 246 244 243 243 244 244 245 246 248 249 249 249 249 248 249 251 253 254 253 253
284 281 281 281 282 282 280 276 273 270 269 269 269 268 265 261 257 255 252 251 251 251 251 249 247 244 243 244 245 245 247 247 248 249 249 248 247 247 248 249 251 252 252 253
285 282 282 283 283 284 283 279 277 275 273 271 270 270 266 261 257 256 253 252 251 251 251 250 248 245 244 244 245 245 246 247 248 248 249 249 247 247 248 249 251 251 251 253
283 285 285 286 286 285 283 281 280 279 278 274 273 272 269 263 259 257 255 253 251 250 250 249 247 245 244 244 244 244 244 245 246 247 247 247 247 247 247 249 250 250 251 252
282 285 287 287 287 286 285 284 282 281 281 278 277 275 271 266 262 258 257 254 252 250 248 248 247 246 245 245 245 244 245 246 246 245 245 246 245 245 246 248 249 249 250 252
282 284 286 286 285 286 287 286 285 283 282 281 280 277 273 268 264 259 257 254 253 252 251 249 248 248 247 247 246 245 245 245 244 244 244 244 244 244 245 246 247 249 250 252
283 285 285 284 283 284 285 285 286 286 284 283 281 277 273 269 265 262 259 256 254 253 252 251 249 248 248 248 247 246 245 245 243 242 243 244 245 245 245 246 248 249 251 252
285 284 283 282 281 282 283 284 286 286 285 284 282 278 275 271 267 264 262 260 256 255 253 251 249 248 248 247 246 245 245 245 243 243 244 244 244 243 244 246 247 249 250 251
286 284 283 282 281 281 281 282 284 284 284 284 282 280 277 273 269 267 265 262 258 255 253 251 250 249 248 247 246 246 245 245 244 243 243 242 242 242 244 246 247 248 249 249
285 284 283 282 282 282 281 282 282 282 282 282 281 281 278 275 272 270 268 264 259 256 253 250 249 248 247 248 247 245 244 243 243 243 243 243 243 243 244 246 246 248 249 250
286 284 283 283 282 282 282 282 282 281 281 281 281 280 278 275 274 273 269 263 258 255 253 253 253 250 249 248 246 243 241 241 241 242 243 244 243 244 244 244 246 247 248 247
287 284 283 283 283 283 283 283 283 283 283 282 281 279 276 274 274 273 269 264 259 255 254 255 254 252 251 249 246 243 241 241 242 243 244 244 244 243 243 243 245 244 243 243
287 285 284 284 284 284 284 283 283 283 283 282 281 280 277 274 273 274 271 267 263 258 256 255 254 252 251 249 246 243 241 242 243 243 242 241 242 243 243 242 241 240 240 241
288 286 284 283 283 284 284 284 283 281 279 278 279 278 276 275 273 273 271 269 264 259 257 255 253 250 248 248 246 244 243 242 241 240 238 238 239 239 238 237 237 237 237 236
287 285 283 281 283 285 285 284 283 281 279 277 277 276 276 274 273 271 270 268 264 261 259 255 251 248 246 246 246 245 244 241 238 235 234 234 232 232 232 233 232 231 231 232